Location: Oberhofen
(46.7315°N, 7.6690°E)
Time: 17:59:13
(UTC+00:00)

Daily predictions for brighter satellites

Satellite Brightness Start Highest point End
(mag) Time Altitude Azimuth Time Altitude Azimuth Time Altitude Azimuth
USA 267 4.5 19:55:13 10° ENE 20:01:11 39° N 20:07:09 10° NW
USA 245 4.4 19:58:23 10° SE 20:02:28 44° ENE 20:07:28 10° N
Cosmos 2056 Rocket 3.8 20:02:44 10° S 20:07:40 48° ESE 20:12:44 10° NNE
Sich 1 Rocket 4.4 20:05:33 10° NNW 20:09:50 52° W 20:14:05 10° S
Cosmos 304 Rocket 4.1 20:08:04 10° SSW 20:12:52 72° WNW 20:17:42 10° NNE
Cosmos 2297 Rocket 4.4 20:10:47 10° NW 20:14:51 21° W 20:18:54 10° SSW
ARIANE 5 R/B 3.4 20:11:23 10° SE 20:15:29 39° ENE 20:19:39 10° N
Cosmos 1707 3.8 20:13:15 10° SSE 20:16:36 29° E 20:19:59 10° NNE
Cosmos 1733 4.2 20:13:04 10° NNW 20:16:48 46° W 20:20:29 10° SSW
Cosmos 2227 Rocket 4.1 20:13:18 10° NW 20:17:51 25° WSW 20:22:23 10° SSW
Cosmos 2263 Rocket 2.4 20:13:18 10° NNW 20:19:00 68° ENE 20:24:35 10° SE
Cosmos 407 Rocket 3.7 20:14:35 10° NNW 20:19:55 73° WSW 20:25:10 10° SSE
Cosmos 1934 Rocket 4.1 20:14:01 10° N 20:20:06 81° W 20:26:14 10° S
SPOT 3 Rocket 3.7 20:15:39 10° S 20:20:48 77° WSW 20:26:01 10° NNW
Cosmos 1371 Rocket 3.9 20:18:49 10° SSW 20:23:58 74° ESE 20:29:09 10° NNE
Landsat 7 4.1 20:19:58 10° S 20:24:42 71° WSW 20:29:28 10° NNW
Cosmos 1674 Rocket 3.5 20:21:33 10° S 20:25:58 82° E 20:30:23 10° N
Cosmos 1190 Rocket 4.1 20:22:38 10° NNW 20:27:57 82° WSW 20:33:14 10° SSE
Geosat 4.0 20:25:22 10° SSE 20:30:20 89° NE 20:35:24 10° NNW
Cosmos 1420 Rocket 4.2 20:25:45 10° S 20:30:42 49° ESE 20:35:42 10° NNE
Spot 2 Rocket 3.6 20:27:04 10° SSE 20:32:01 67° ENE 20:37:04 10° N
Cosmos 1727 Rocket 4.4 20:28:45 10° SSE 20:34:48 49° E 20:40:49 10° NNE
NOSS 3-2 (C) 3.6 20:30:37 10° SSW 20:35:55 47° ESE 20:41:58 10° NE
Cosmos 2285 Rocket 4.2 20:31:42 10° S 20:37:58 57° ESE 20:44:15 10° NNE
NOSS 3-2 (A) 3.3 20:32:25 10° SSW 20:37:59 81° SE 20:44:28 10° NE
Cosmos 1726 2.0 20:37:24 10° N 20:41:03 85° E 20:44:15 13° S
Okean 2 3.3 20:37:04 10° S 20:41:10 86° E 20:45:17 10° N
Cosmos 1605 Rocket 4.1 20:36:34 10° N 20:43:00 85° W 20:49:23 10° S
Cosmos 1842 3.9 20:39:49 10° SSW 20:43:40 56° WNW 20:47:34 10° N
Meteor 2-10 4.2 20:39:03 10° NNW 20:44:04 67° W 20:49:05 10° S
Meteor 1-21 4.2 20:38:37 10° S 20:44:18 76° E 20:49:57 10° NNE
Cosmos 1315 Rocket 2.9 20:41:04 10° N 20:45:14 81° E 20:48:45 14° SSE
ERS-1 Rocket 3.1 20:45:11 14° SSE 20:49:27 65° ENE 20:54:28 10° N
USA 81 4.1 20:44:17 10° N 20:49:34 75° E 20:54:16 13° SSE
Aureole 2 Rocket 4.3 20:49:39 10° WNW 20:50:57 13° WSW 20:52:14 10° SW
ATLAS 3B R/B 4.3 20:52:20 11° ESE 20:53:54 12° ESE 20:56:28 10° E
Cosmos 1470 3.2 20:52:22 10° NNW 20:56:19 60° W 20:59:55 12° S
Okean 1 Rocket 3.4 20:52:13 10° NNW 20:56:32 64° W 21:00:35 12° S
GEOS 3 Rocket 4.3 20:52:41 11° ESE 20:57:35 49° NE 21:02:44 10° NNW
Cosmos 676 Rocket 4.2 20:54:13 10° NNW 20:59:33 73° WSW 21:03:55 15° SSE
Cosmos 1758 3.3 20:56:49 10° N 21:00:49 86° WSW 21:03:50 17° S
SL-16 R/B 2.2 20:56:17 10° S 21:01:51 61° ESE 21:07:26 10° NNE
KORONAS-FOTON 4.4 21:00:09 20° SSE 21:02:21 39° E 21:05:55 10° NNE
SPOT 5 3.0 20:58:02 16° SSE 21:02:22 83° ENE 21:07:26 10° NNW
Cosmos 2227 4.4 20:57:54 10° NNW 21:03:30 67° WSW 21:07:57 16° SSE
Cosmos 1954 Rocket 4.3 20:58:19 10° NNW 21:03:36 66° WSW 21:07:54 15° S
Cosmos 1455 Rocket 3.5 20:59:30 10° N 21:03:51 50° ENE 21:06:42 20° SE
Meteor 1-16 Rocket 4.4 20:59:26 10° N 21:04:56 56° ENE 21:08:45 19° SSE
Cosmos 2322 Rocket 2.4 21:02:07 10° S 21:07:37 53° ESE 21:13:11 10° NE
Cosmos 2360 Rocket 3.0 21:06:00 18° SSE 21:09:22 32° ESE 21:14:20 10° NE
USA 215 3.3 21:03:13 10° ENE 21:09:37 54° SE 21:15:59 10° SSW
USA 238 DEB 3.7 21:04:37 10° SW 21:11:11 85° NW 21:18:08 10° NE
USA 238 3.7 21:04:44 10° SW 21:11:17 86° NW 21:18:14 10° NE
Resurs 01 Rocket 3.9 21:10:09 10° SW 21:13:17 19° W 21:16:26 10° NW
Meteor 2-20 Rocket 4.4 21:07:23 10° S 21:13:32 85° E 21:19:40 10° N
SL-8 R/B 3.9 21:13:24 10° W 21:18:12 71° N 21:22:59 10° E
BREEZE-M DEB (TANK) 2.6 21:16:36 10° SW 21:19:08 59° SSE 21:24:43 10° ENE
Lacrosse 5 1.8 21:14:44 10° NW 21:19:50 84° SW 21:23:12 21° SE
Genesis I 3.1 21:17:27 10° SSW 21:21:16 69° ESE 21:25:12 10° NE
Cosmos 1459 Rocket 4.0 21:15:37 10° N 21:21:41 72° E 21:25:54 21° SSE
Cosmos 1000 Rocket 4.5 21:19:10 17° S 21:24:01 68° E 21:30:07 10° NNE
Cosmos 1626 2.7 21:24:21 28° SE 21:25:44 40° E 21:29:12 10° NNE
Cosmos 1110 Rocket 4.5 21:25:12 22° SSE 21:28:00 41° ESE 21:32:52 10° NE
Cosmos 1980 Rocket 4.2 21:24:13 10° WSW 21:29:08 30° NW 21:34:03 10° N
Cosmos 1953 2.3 21:28:22 10° N 21:32:27 87° WSW 21:34:36 27° S
Terra 2.0 21:30:59 22° S 21:34:05 71° WSW 21:38:51 10° NNW
ATLAS CENTAUR R/B 3.5 21:31:40 10° NNW 21:35:05 23° NE 21:38:39 10° E
CENTAUR R/B 3.0 21:31:27 10° SW 21:37:24 65° NW 21:44:34 10° NE
Cosmos 1300 3.8 21:35:21 10° N 21:38:47 31° ENE 21:40:09 24° ESE
Cosmos 292 Rocket 4.3 21:34:05 10° SW 21:38:52 61° WNW 21:43:40 10° NNE
Cosmos 1674 2.7 21:37:32 22° SSW 21:39:49 72° W 21:43:33 10° N
H-2A R/B 3.3 21:35:49 10° NNE 21:39:56 89° ESE 21:42:27 23° SSW
Cosmos 2123 Rocket 4.2 21:37:49 23° SSE 21:41:47 59° E 21:47:59 10° NNE
Cosmos 405 3.9 21:40:23 10° N 21:43:36 35° ENE 21:44:35 29° ESE
USA 267 3.5 21:37:26 11° ESE 21:43:39 70° NNE 21:50:10 10° NW
Cosmos 1452 Rocket 3.7 21:39:26 10° SSW 21:44:43 75° WNW 21:50:01 10° NNE
Cosmos 1908 3.4 21:42:41 10° NNW 21:46:34 67° W 21:48:22 30° S
Cosmos 2100 Rocket 4.3 21:43:27 10° NNW 21:49:47 67° W 21:54:16 20° S
Cosmos 1844 Rocket 2.7 21:46:06 10° NNW 21:51:49 79° ENE 21:55:01 27° SSE
ARIANE 5 R/B 4.5 21:48:39 11° SW 21:52:04 23° W 21:55:39 10° NW
Cosmos 1975 Rocket 3.8 21:49:02 15° SSW 21:52:29 49° WNW 21:56:45 10° N
Aureole 1 Rocket 3.9 21:49:01 10° NNW 21:54:24 87° ENE 21:58:28 26° SSE
SL-14 R/B 3.5 21:53:12 35° SSE 21:54:39 58° E 21:58:38 10° NNE
Cosmos 1850 Rocket 4.3 21:50:39 10° NNW 21:55:54 61° WSW 21:58:43 27° S
Cosmos 2233 Rocket 4.3 21:51:18 10° N 21:57:18 52° ENE 22:00:40 26° SE
Cosmos 1025 Rocket 3.1 21:55:41 26° SSW 21:58:07 81° W 22:02:32 10° N
Cosmos 2333 Rocket 2.8 22:00:00 28° SSE 22:02:13 39° ESE 22:07:31 10° NE
Cosmos 2263 Rocket 4.1 21:58:16 10° NW 22:02:22 21° W 22:06:16 11° SW
Spot 4 4.2 22:03:38 29° SE 22:05:51 53° ENE 22:10:32 10° N
Cosmos 2228 4.0 22:06:21 10° N 22:10:25 36° ENE 22:12:02 27° ESE
Cosmos 1340 2.5 22:10:26 44° S 22:11:34 84° E 22:15:21 10° NNE
Meteor 1-24 Rocket 3.9 22:10:04 31° SSE 22:12:18 52° E 22:17:32 10° NNE
Cosmos 2016 Rocket 4.2 22:11:50 10° NNW 22:17:53 65° W 22:21:23 26° SSW
Cosmos 1331 Rocket 4.0 22:16:11 22° SSW 22:19:34 81° WNW 22:24:53 10° NNE
Cosmos 1844 3.7 22:17:01 10° NNW 22:22:35 75° WSW 22:25:07 33° SSE
Cosmos 1725 Rocket 4.2 22:20:08 10° NNW 22:26:15 66° W 22:29:40 27° SSW
ALOS 2 3.2 22:25:47 32° ESE 22:27:24 47° ENE 22:31:38 10° N
Cosmos 2219 Rocket 2.3 22:31:32 34° S 22:33:53 59° ESE 22:39:28 10° NNE
Cosmos 1302 Rocket 4.0 22:32:10 35° S 22:34:25 72° ESE 22:39:40 10° NNE
GEOS 3 Rocket 4.4 22:33:47 29° SSW 22:35:41 38° WSW 22:40:40 10° NW
Cosmos 1606 Rocket 3.8 22:36:48 10° N 22:41:16 61° ENE 22:42:37 41° SE
Cosmos 1892 Rocket 4.5 22:40:25 31° ESE 22:41:22 34° E 22:45:22 10° NNE
Cosmos 389 Rocket 2.7 22:39:10 10° N 22:42:32 53° ENE 22:42:52 50° ESE
Cosmos 2237 Rocket 3.6 22:41:47 20° ESE 22:42:58 22° E 22:47:09 10° NE
ATLAS 3B R/B 2.6 22:39:31 27° SSW 22:43:16 67° ESE 22:49:58 10° NE
FALCON 9 DEB 3.3 22:44:12 56° E 22:44:12 56° E 22:47:05 10° ENE
SL-16 R/B 4.2 22:41:36 10° WSW 22:46:22 27° NW 22:51:09 10° N
Cosmos 1461 3.3 22:42:38 10° NW 22:46:39 43° WSW 22:47:11 40° SW
Meteor 2-5 Rocket 4.0 22:47:48 27° SSW 22:50:50 62° WNW 22:56:22 10° N
Cosmos 1346 Rocket 2.7 22:51:09 55° SSE 22:51:54 73° E 22:55:55 10° NNE
Cosmos 2322 Rocket 3.9 22:46:59 10° WSW 22:51:58 30° NW 22:56:59 10° N
USA 215 3.8 22:46:17 10° NE 22:52:42 60° NNW 22:59:06 10° WSW
COSMOS 2428 2.7 22:50:46 35° S 22:53:10 68° ESE 22:58:53 10° NNE
Cosmos 2360 Rocket 3.2 22:47:48 10° SW 22:53:13 45° NW 22:58:37 10° NNE
Cosmos 1900 4.4 22:48:24 10° NW 22:53:16 62° WSW 22:54:40 43° S
Lacrosse 5 rocket 0.9 22:57:45 67° SE 22:57:45 67° SE 23:01:15 10° NE
Iridium 2 3.5 22:58:38 63° SSE 22:59:10 80° E 23:02:56 10° N
Uosat 12 SS-18 rocket 4.4 22:58:55 45° SSE 22:59:36 49° ESE 23:04:20 10° NE
SL-8 R/B 3.6 22:56:02 10° WNW 23:00:49 71° SSW 23:02:46 35° SE
Cosmos 2322 3.8 22:57:37 26° SW 23:00:52 76° WNW 23:06:34 10° NNE
Cosmos 1486 Rocket 4.0 22:55:50 10° NNW 23:01:06 78° ENE 23:03:10 38° SSE
Lacrosse 5 3.6 22:58:53 10° W 23:02:09 17° WSW 23:02:23 17° SW
Cosmos 1455 2.2 23:05:51 10° N 23:09:42 71° E 23:10:18 58° SE
Meteor 2-10 Rocket 3.8 23:07:34 10° NNW 23:12:37 55° W 23:14:19 37° SSW
DNEPR-1 R/B 3.6 23:09:00 10° NW 23:13:08 56° WSW 23:13:48 49° SSW
Meteor 2-1 Rocket 4.4 23:07:55 10° N 23:13:22 60° ENE 23:15:48 32° SE
Cosmos 2278 Rocket 2.5 23:07:51 10° NNW 23:13:31 64° ENE 23:16:33 28° SE
ATLAS CENTAUR R/B 1.5 23:10:01 10° NW 23:14:18 65° WSW 23:15:12 51° S
MTI 3.7 23:11:20 10° NNE 23:14:10 74° NNE 23:14:10 74° NNE
Okean 1-7 Rocket 4.1 23:17:58 40° SE 23:19:02 49° E 23:23:22 10° NNE
SAR-Lupe-2 3.4 23:17:28 10° NNE 23:21:04 87° WNW 23:21:26 70° SSW
USA 267 3.7 23:24:45 33° S 23:26:54 43° SW 23:33:05 10° WNW
Cosmos 1992 Rocket 3.9 23:26:26 40° SSW 23:28:22 87° ESE 23:33:38 10° NNE
Cosmos 1703 3.4 23:30:59 54° SE 23:31:33 61° E 23:35:27 10° NNE
Cosmos 968 Rocket 4.0 23:27:47 10° NW 23:32:38 44° WSW 23:33:58 36° SW
Cosmos 1844 Rocket 4.5 23:31:26 10° WNW 23:35:00 17° W 23:36:40 15° WSW
Cosmos 2058 Rocket 3.2 23:41:26 10° NNW 23:45:52 60° W 23:46:54 46° SSW
Cosmos 2333 Rocket 3.4 23:41:58 14° WSW 23:46:30 39° NW 23:51:51 10° NNE
GP-B 3.3 23:42:24 10° N 23:46:49 61° E 23:48:05 42° SSE
Cosmos 1441 Rocket 3.1 23:50:47 62° S 23:51:24 89° E 23:55:18 10° NNE
FALCON 9 DEB 4.0 23:52:32 36° E 23:52:32 36° E 23:54:37 10° ENE
Cosmos 1980 3.6 23:49:19 38° SSW 23:51:36 78° ESE 23:57:19 10° NNE
USA 32 4.2 23:47:32 10° N 23:52:47 69° E 23:54:59 35° SSE
Cosmos 1812 Rocket 4.1 23:51:28 10° N 23:55:42 50° ENE 23:57:19 32° SE
